Regional Weather Roundup
Issued by NWS State College, PA

Home | Current Version | Previous Version | Graphics & Text | Print | Product List | Glossary On
Versions: 1 2 3 4 5 6 7 8 9 10 11 12 13 14 15 16 17 18 19 20 21 22 23 24 25 26 27 28 29 30 31 32 33 34 35 36 37 38 39 40 41 42 43 44 45 46 47 48 49 50
392
ASUS41 KCTP 221510
RWRCTP

REGIONAL WEATHER ROUNDUP
NATIONAL WEATHER SERVICE STATE COLLEGE PA
1000 AM EST THU FEB 22 2018

Note: "fair" indicates few or no clouds below 12,000 feet with no
significant weather and/or obstructions to visibility.

* = STATION THAT DOES NOT REPORT PRECIPITATION /E.G. RAIN...SNOW...ETC/
    THUNDER OR FOG.

PAZ002>004-007>009-013>016-020>023-029>032-221600-
WESTERN PENNSYLVANIA

CITY           SKY/WX    TMP DP  RH WIND       PRES   REMARKS
ERIE           LGT SNOW  31  29  92 NE9       30.58S VSB 3/4
MEADVILLE      LGT SNOW  32  32 100 E8        30.53S FOG
FRANKLIN*      MIX PCPN  32  31  96 E7        30.53S FOG
NEW CASTLE     LGT RAIN  36  36 100 NE10      30.52F
BEAVER COUNTY  LGT RAIN  36  34  93 NE6       30.49F
BUTLER*        LGT RAIN  36  34  92 NE14      30.49F
PITTSBURGH INT LGT RAIN  39  38  96 NE14G22   30.46S
PITTSBURGH     LGT RAIN  37  35  92 NE8G22    30.44S FOG
INDIANA*       CLOUDY    36  36 100 E9G16     30.50F FOG
LATROBE        LGT RAIN  37  37 100 N9G21     30.43F
WASHINGTON CO* LGT RAIN  39  38  96 NE17G25   30.45F
$$

PAZ004>006-010>012-017>019-024>028-033>037-041-042-045-046-049>053-221600-
CENTRAL PENNSYLVANIA

CITY           SKY/WX    TMP DP  RH WIND       PRES   REMARKS
BRADFORD       HVY SNOW  29  28  96 E9        30.52F VSB 1/4
DUBOIS         FRZ RAIN  32  30  92 E10       30.50R FOG
CLEARFIELD     LGT RAIN  34  32  92 NE9       30.53F
JOHNSTOWN      CLOUDY    34  31  88 E13G22    30.40F
ALTOONA        CLOUDY    36  33  89 NE9       30.51F
STATE COLLEGE  RAIN      32  32 100 NE12      30.55F FOG
WILLIAMSPORT   LGT RAIN  36  35  96 CALM      30.61F FOG
SELINSGROVE    RAIN      38  35  89 N5        30.60S FOG
FT INDIANTOWN  LGT RAIN  41  39  93 NE8       30.55F
CAPITAL CITY   CLOUDY    45  38  76 N7        30.55S
HARRISBURG     CLOUDY    44  37  76 VRB6      30.54F
YORK           CLOUDY    42  41  96 NE5       30.53S
$$

PAZ038>040-043-044-047-048-054-055-060>062-067>071-221600-
EASTERN PENNSYLVANIA

CITY           SKY/WX    TMP DP  RH WIND       PRES   REMARKS
SCRANTON       RAIN      37  36  96 N5        30.60S FOG
MOUNT POCONO   RAIN      34  33  96 N6        30.58R
ALLENTOWN      CLOUDY    43  34  70 N9        30.60R
QUAKERTOWN*    CLOUDY    43  36  75 NE8G15    30.56R
READING        LGT RAIN  43  38  82 NE12G21   30.54S
LANCASTER      CLOUDY    44  39  82 NE13      30.52F
COATESVILLE    CLOUDY    43 N/A N/A NE8G18    30.53R
POTTSTOWN      LGT RAIN  43  36  76 NE9G17    30.57R
BLUE BELL      CLOUDY    43  36  75 NE7G17    30.56S
DOYLESTOWN     CLOUDY    43  36  76 VRB6      30.54F
WILLOW GROVE   NOT AVBL
NORTH PHILA    CLOUDY    47  38  71 NE16      30.57F
PHILADELPHIA   CLOUDY    47  40  76 NE13G22   30.54F
$$




USA.gov is the U.S. government's official web portal to all federal, state and local government web resources and services.